TimeCST,TemperatureF,Dew PointF,Humidity,Sea Level PressureIn,VisibilityMPH,Wind Direction,Wind SpeedMPH,Gust SpeedMPH,PrecipitationIn,Events,Conditions,WindDirDegrees,DateUTC
12:53 AM,32.0,25.0,75,30.07,10.0,ENE,6.9,-,N/A,,Clear,60,2012-11-26 06:53:00
1:53 AM,28.9,23.0,78,30.09,10.0,ENE,5.8,-,N/A,,Clear,70,2012-11-26 07:53:00
2:53 AM,28.0,21.9,78,30.12,10.0,NNE,9.2,-,N/A,,Clear,30,2012-11-26 08:53:00
3:53 AM,30.0,24.1,79,30.12,10.0,NE,11.5,-,N/A,,Clear,40,2012-11-26 09:53:00
4:53 AM,30.0,23.0,75,30.14,10.0,NE,11.5,-,N/A,,Clear,50,2012-11-26 10:53:00
5:53 AM,28.9,23.0,78,30.16,10.0,NE,11.5,-,N/A,,Clear,40,2012-11-26 11:53:00
6:53 AM,28.9,23.0,78,30.19,10.0,NNE,11.5,-,N/A,,Partly Cloudy,30,2012-11-26 12:53:00
7:53 AM,28.0,23.0,81,30.21,9.0,NNE,9.2,-,N/A,,Scattered Clouds,30,2012-11-26 13:53:00
8:53 AM,33.1,24.1,70,30.25,10.0,NE,13.8,-,N/A,,Mostly Cloudy,50,2012-11-26 14:53:00
9:53 AM,36.0,23.0,59,30.29,10.0,NE,13.8,-,N/A,,Mostly Cloudy,40,2012-11-26 15:53:00
10:53 AM,37.9,23.0,55,30.33,9.0,NNE,13.8,-,N/A,,Mostly Cloudy,20,2012-11-26 16:53:00
11:53 AM,41.0,23.0,49,30.33,10.0,North,17.3,-,N/A,,Overcast,10,2012-11-26 17:53:00
12:53 PM,39.9,21.9,49,30.33,10.0,North,17.3,26.5,N/A,,Overcast,10,2012-11-26 18:53:00
1:53 PM,37.9,23.0,55,30.35,10.0,NNE,19.6,-,N/A,,Overcast,20,2012-11-26 19:53:00
2:34 PM,33.8,26.6,75,30.33,2.5,NNE,18.4,-,0.00,Snow,Light Snow,30,2012-11-26 20:34:00
2:53 PM,33.1,27.0,78,30.36,2.5,NNE,16.1,-,0.00,Snow,Light Snow,20,2012-11-26 20:53:00
3:11 PM,33.8,28.4,81,30.34,4.0,North,15.0,-,0.00,Snow,Light Snow,10,2012-11-26 21:11:00
3:36 PM,33.8,26.6,75,30.34,9.0,North,15.0,-,0.00,,Overcast,10,2012-11-26 21:36:00
3:53 PM,34.0,26.1,73,30.37,10.0,North,12.7,-,0.00,,Mostly Cloudy,10,2012-11-26 21:53:00
4:53 PM,32.0,21.9,66,30.38,10.0,NNE,10.4,-,N/A,,Scattered Clouds,20,2012-11-26 22:53:00
5:53 PM,28.0,21.0,75,30.40,10.0,North,6.9,-,N/A,,Clear,10,2012-11-26 23:53:00
6:53 PM,28.0,19.9,72,30.43,10.0,North,6.9,-,N/A,,Clear,360,2012-11-27 00:53:00
7:53 PM,26.1,19.0,75,30.45,10.0,North,6.9,-,N/A,,Clear,350,2012-11-27 01:53:00
8:53 PM,25.0,17.1,72,30.46,10.0,North,8.1,-,N/A,,Clear,360,2012-11-27 02:53:00
9:53 PM,21.9,14.0,72,30.48,10.0,North,9.2,-,N/A,,Clear,350,2012-11-27 03:53:00
10:53 PM,19.9,12.0,71,30.48,10.0,North,8.1,-,N/A,,Clear,360,2012-11-27 04:53:00
11:53 PM,19.0,10.9,71,30.48,10.0,North,5.8,-,N/A,,Clear,10,2012-11-27 05:53:00